Regional Weather Roundup
Issued by NWS Sterling, VA

Home | Current Version | Previous Version | Graphics & Text | Print | Product List | Glossary On
Versions: 1 2 3 4 5 6 7 8 9 10 11 12 13 14 15 16 17 18 19 20 21 22 23 24 25 26 27 28 29 30 31 32 33 34 35 36 37 38 39 40 41 42 43 44 45 46 47 48 49 50
910
ASUS41 KLWX 051810
RWRLWX

REGIONAL WEATHER ROUNDUP
NATIONAL WEATHER SERVICE BALTIMORE MD/WASHINGTON DC
100 PM EST MON DEC 05 2016

Note: "FAIR" indicates few or no clouds below 12,000 feet
with no significant weather and/or obstructions to visibility.
 TC=TEMPERATURE CELSIUS

 * =Non NWS site. Station does not report precipitation (e.g. rain,
    snow, etc.), thunder, or fog.

DCZ001-MDZ009-015-VAZ040>042-051-053>054-051900-
WASHINGTON METRO

CITY           SKY/WX    TMP DP  RH WIND       PRES   REMARKS
WASHINGTON NAT MOSUNNY   55  38  52 N14G21    30.02F
DULLES         PTSUNNY   53  38  56 NW12      30.01F
ANDREWS AFB    PTSUNNY   53  38  57 NW10      30.00S
FT BELVOIR     SUNNY     55  35  47 NW10      30.02S
QUANTICO       SUNNY     45  42  89 S5        30.04F
COLLEGE PARK*  SUNNY     52  36  54 W9G17     30.00S
LEESBURG*      MOSUNNY   54  41  62 NW10G17   30.02F
MANASSAS*      MOSUNNY   50  45  81 S6        30.02F
GAITHERSBURG*  MOSUNNY   48  34  57 NW10G18   30.05S

$$

MDZ006>007-011-014-051900-
BALTIMORE METRO

CITY           SKY/WX    TMP DP  RH WIND       PRES   REMARKS
BWI AIRPORT    MOSUNNY   54  38  54 NW15G21   30.00S
MD SCIENCE CTR   N/A     54  36  50 MISG      30.03R
MARTIN STATE   MOSUNNY   54  45  71 NW13      30.02S
ANNAPOLIS      MOSUNNY   54  40  59 NW9       30.00F
FORT MEADE*    SUNNY     54  37  54 W9        30.03S

$$

MDZ012-015-019>023-051900-
MARYLAND EASTERN SHORE

CITY           SKY/WX    TMP DP  RH WIND       PRES   REMARKS
OCEAN CITY     MOSUNNY   49  43  80 NW10      30.00S
SALISBURY      MOSUNNY   52  43  71 NW9       29.99F
BAY BRIDGE AP* SUNNY     50  41  71 SW3       30.01S
CAMBRIDGE*     SUNNY     46  41  81 NW6       30.00F
EASTON*        PTSUNNY   50  41  71 N3        30.05S

$$

MDZ017>025-051900-
SOUTHERN MARYLAND

CITY           SKY/WX    TMP DP  RH WIND       PRES   REMARKS
PATUXENT RIVER MOSUNNY   50  41  71 N5        30.01F
ST INIGOES     SUNNY     50  44  80 SW6       30.01S
LEONARDTOWN*   MOSUNNY   52  41  66 NW5       30.02F

$$

MDZ003>005-051900-
NORTH CENTRAL MARYLAND

CITY           SKY/WX    TMP DP  RH WIND       PRES   REMARKS
FREDERICK*     MOSUNNY   52  39  62 W13G18    30.04S
HAGERSTOWN APT MOSUNNY   52  32  46 NW10      30.00R
WESTMINSTER*   MOSUNNY   46  37  71 W6        30.00R

$$

MDZ501>502-051900-
WESTERN MARYLAND

CITY           SKY/WX    TMP DP  RH WIND       PRES   REMARKS
OAKLAND*       MOSUNNY   36  30  80 W6        29.99S
CUMBERLAND*    NOT AVBL

$$

VAZ025>031-051900-
SHENANDOAH VALLEY

CITY           SKY/WX    TMP DP  RH WIND       PRES   REMARKS
WINCHESTER*    SUNNY     52  32  46 NW15      30.00F
FRONT ROYAL*   FAIR      54  34  47 NW6       29.99F
LURAY*         FAIR      55  39  54 CALM      30.00S
NEW MARKET*    FAIR      55  32  41 N7        29.99F
STAUNTON*      SUNNY     53  32  46 W5        30.03S
WAYNESBORO*    FAIR      53  33  47 N6        30.00F

$$

WVZ021-048>050-054>055-051900-
EASTERN WEST VIRGINIA PANHANDLE

CITY           SKY/WX    TMP DP  RH WIND       PRES   REMARKS
MARTINSBURG    SUNNY     52  33  48 NW15      30.01S
PETERSBURG*    SUNNY     54  33  44 NW9       30.02F

$$

VAZ036>039-050-051900-
CENTRAL FOOTHILLS

CITY           SKY/WX    TMP DP  RH WIND       PRES   REMARKS
CHARLOTTESVILL SUNNY     55  40  56 CALM      30.01F
CULPEPER*      SUNNY     50  43  77 CALM      30.04S
ORANGE*          N/A     50  45  81 CALM      30.03S
GORDONSVILLE*  FAIR      51  43  73 CALM      30.01S
WARRENTON*     FAIR      52  40  64 S3        30.02S

$$

VAZ055>057-051900-
NORTH AND CENTRAL PIEDMONT

CITY           SKY/WX    TMP DP  RH WIND       PRES   REMARKS
FREDERICKSBRG* MOSUNNY   48  44  84 CALM      30.03S
STAFFORD*      SUNNY     51  43  76 NW6       30.07F

$$

NCZ024-NYZ072-PAZ021-071-VAZ022-071-051900-
OTHER REGIONAL OBSERVATIONS

CITY           SKY/WX    TMP DP  RH WIND       PRES   REMARKS
NEW YORK CITY  SUNNY     48  35  60 W8G18     29.97F
PHILADELPHIA   MOSUNNY   49  38  65 NW15      29.99F
PITTSBURGH     CLOUDY    42  30  62 W9        30.06F
ROANOKE        SUNNY     57  37  47 NW6       30.02F
RICHMOND       PTSUNNY   48  42  80 N5        30.03S
RALEIGH        MOSUNNY   58  43  57 N9G18     30.02F

$$

ANZ530>537-051900-
MARINE OBSERVATIONS

STATION/POSITION TIME  TEMP    WIND        PRES
                       AIR SEA DIR/SP/G
                 (UTC) (F)     (DEG/KT/KT) (MB)
THOMAS PT LIGHT  1800   47 49  120/  4/  4   N/A
BALT KEY BRIDGE  1748   51     300/ 13/ 15 1015.8F
COVE POINT       1748   45      50/  4/  6 1016.9F
LEWISETTA        1748   48 49  350/  7/ 10 1016.1F
SOLOMONS ISLAND  1748   49 51  300/  5/  7   N/A
PINEY POINT      1748          310/ 12/ 12   N/A

$$





USA.gov is the U.S. government's official web portal to all federal, state and local government web resources and services.